Погода в Маразе

Азербайджан     40°31′55″N   48°55′33″E
темп.,
°C
ветер,
м/с
пор.,
м/с
влажн.,
%
обл.,
%
осадки,
мм/ч
давл.,
гПа
погр.,
м
29 июля, чт
чт2901:00+20ссв3948100 0.0 1015573
04:00+20всв1247100 0.0 1015372
07:00+19всв0151100 0.0 1016433
10:00+23св573365 0.0 10161298
13:00+25всв77311 0.0 10151698
16:00+26в86314 0.0 10141410
19:00+23в54358 0.0 1014774
22:00+22св123815 0.1 1015265
30 июля, пт
пт3001:00+22з2443100 0.3 1014541
04:00+22зюз1147100 0.3 1014369
07:00+22ююв114792 0.0 1014342
10:00+24ююз223792 0.0 10141130
13:00+24с013481 0.0 1013701
16:00+27юв332891 0.2 10111479
19:00+25вюв233681 0.7 1011754
22:00+25всв113761 0.9 101273
31 июля, сб
сб3101:00+24вюв1140100 0.0 1011169
04:00+24ююз114297 0.0 101077
07:00+24з004196 0.0 1011129
10:00+26ю11320 0.0 1011936
13:00+29ююв32270 0.0 10091797
16:00+31юв43270 0.0 10082140
19:00+27вюв55361 0.0 1009825
22:00+25всв23440 0.0 1011322
1 августа, вс
вс101:00+25в1145100 0.0 101118
04:00+24всв114856 0.0 101011
07:00+24в224697 0.0 1012138
10:00+27ююв223590 0.0 1012813
13:00+31ююв4427100 0.0 10101921
16:00+29ю4435100 0.0 10101688
19:00+26в2438100 0.0 1011458
22:00+27св3532100 0.0 1012442
2 августа, пн
пн201:00+25св784495 0.0 1011346
04:00+25с2440100 0.0 1011157
07:00+26ссз223198 0.0 101167
10:00+27всв5827100 0.0 1012633
13:00+30в452340 0.0 10111408
16:00+32вюв661934 0.0 10092688
19:00+30в552152 0.0 10101209
22:00+28всв222471 0.0 101126